Weather History for Logansport, IN

Change the Weather History Date:

Monday, December 31, 2012

  Actual Average Record
Temperature  
Mean Temperature 29 °F -  
Max Temperature 32 °F 33 °F 32 °F (2012)
Min Temperature 26 °F 16 °F 8 °F (2013)
Degree Days  
Heating Degree Days 36    
Moisture  
Dew Point 26 °F    
Average Humidity 85    
Maximum Humidity 93    
Minimum Humidity 69    
Precipitation  
Precipitation 0.00 in - - ()
Sea Level Pressure  
Sea Level Pressure 30.10 in    
Wind  
Wind Speed 12 mph (SW)    
Max Wind Speed 20 mph    
Max Gust Speed 26 mph    
Visibility 7 miles    
Events Snow    
Averages and records for this station are not official NWS values.
T = Trace of Precipitation, MM = Missing Value Source: NWS Daily Summary

Daily Weather History Graph

Daily Weather History Graph

Search for Another Location

Airport:

Trip Planner

Search our weather history database for the weather conditions in past years. The results will help you decide how hot, cold, wet, or windy it might be!

Date:

Astronomy

Dec. 31, 2012 Rise Set
Actual Time 8:09 AM EST 5:28 PM EST
Civil Twilight 7:38 AM EST 5:59 PM EST
Nautical Twilight 7:04 AM EST 6:33 PM EST
Astronomical Twilight 6:31 AM EST 7:06 PM EST
Moon 8:59 PM EST (12/31) 9:49 AM EST (12/31)
Length of Visible Light 10h 20m
Length of Day
9h 18m
Waning Gibbous, 90% of the Moon is Illuminated
Dec 31
Waning Gibbous
Jan 4
Last Quarter
Jan 11
New
Jan 18
First Quarter
Jan 26
Full

Hourly Weather History & Observations

Time (EST) Temp. Windchill Dew Point Humidity Pressure Visibility Wind Dir Wind Speed Gust Speed Precip Events Conditions
12:15 AM 26.6 °F 16.2 °F 21.2 °F 80% 30.22 in 10.0 mi SSW 11.5 mph - N/A   Clear
12:35 AM 26.6 °F 15.2 °F 21.2 °F 80% 30.20 in 10.0 mi SSW 13.8 mph - N/A   Clear
12:55 AM 26.6 °F 16.2 °F 21.2 °F 80% 30.19 in 10.0 mi SSW 11.5 mph - N/A   Clear
1:15 AM 26.6 °F 16.8 °F 21.2 °F 80% 30.18 in 10.0 mi SSW 10.4 mph - N/A   Clear
1:35 AM 26.6 °F 16.8 °F 21.2 °F 80% 30.18 in 10.0 mi SSW 10.4 mph - N/A   Clear
1:55 AM 28.4 °F 19.1 °F 23.0 °F 80% 30.17 in 10.0 mi SSW 10.4 mph - N/A   Clear
2:15 AM 28.4 °F 16.6 °F 23.0 °F 80% 30.17 in 10.0 mi SSW 16.1 mph - N/A   Clear
2:35 AM 28.4 °F 16.6 °F 23.0 °F 80% 30.17 in 10.0 mi SSW 16.1 mph - N/A   Clear
2:55 AM 28.4 °F 17.0 °F 23.0 °F 80% 30.16 in 10.0 mi SSW 15.0 mph - N/A   Clear
3:15 AM 28.4 °F 18.0 °F 23.0 °F 80% 30.16 in 10.0 mi SSW 12.7 mph - N/A   Clear
3:35 AM 30.2 °F 19.8 °F 23.0 °F 75% 30.15 in 10.0 mi SSW 13.8 mph 24.2 mph N/A   Clear
3:55 AM 30.2 °F 19.3 °F 23.0 °F 75% 30.15 in 10.0 mi SSW 15.0 mph - N/A   Clear
4:15 AM 30.2 °F 18.5 °F 23.0 °F 75% 30.14 in 10.0 mi SSW 17.3 mph 21.9 mph N/A   Clear
4:35 AM 30.2 °F 18.5 °F 23.0 °F 75% 30.12 in 10.0 mi SSW 17.3 mph - N/A   Clear
4:55 AM 30.2 °F 18.9 °F 23.0 °F 75% 30.12 in 10.0 mi SW 16.1 mph - N/A   Clear
5:15 AM 30.2 °F 19.3 °F 23.0 °F 75% 30.12 in 10.0 mi SW 15.0 mph - N/A   Clear
5:35 AM 30.2 °F 19.3 °F 23.0 °F 75% 30.12 in 10.0 mi SW 15.0 mph - N/A   Clear
5:55 AM 30.2 °F 18.9 °F 23.0 °F 75% 30.12 in 10.0 mi SW 16.1 mph - N/A   Clear
6:15 AM 30.2 °F 19.8 °F 23.0 °F 75% 30.12 in 10.0 mi SW 13.8 mph - N/A   Clear
6:35 AM 30.2 °F 20.2 °F 23.0 °F 75% 30.11 in 10.0 mi SW 12.7 mph - N/A   Clear
6:55 AM 30.2 °F 20.2 °F 23.0 °F 75% 30.11 in 10.0 mi SW 12.7 mph - N/A   Clear
7:15 AM 30.2 °F 20.2 °F 23.0 °F 75% 30.11 in 10.0 mi SW 12.7 mph - N/A   Clear
7:35 AM 30.2 °F 20.2 °F 23.0 °F 75% 30.11 in 10.0 mi SW 12.7 mph - N/A   Clear
7:55 AM 30.2 °F 20.2 °F 23.0 °F 75% 30.10 in 10.0 mi SW 12.7 mph - N/A   Clear
8:15 AM 30.2 °F 19.3 °F 23.0 °F 75% 30.11 in 10.0 mi SW 15.0 mph - N/A   Clear
8:35 AM 30.2 °F 18.9 °F 23.0 °F 75% 30.10 in 10.0 mi SW 16.1 mph - N/A   Clear
8:55 AM 32.0 °F 22.1 °F 23.0 °F 69% 30.10 in 10.0 mi SW 13.8 mph - N/A   Clear
9:15 AM 32.0 °F 22.5 °F 24.8 °F 75% 30.11 in 10.0 mi SW 12.7 mph - N/A   Mostly Cloudy
9:35 AM 32.0 °F 22.5 °F 24.8 °F 75% 30.11 in 10.0 mi SW 12.7 mph - N/A   Overcast
9:55 AM 32.0 °F 21.6 °F 24.8 °F 75% 30.11 in 10.0 mi SW 15.0 mph 20.7 mph N/A   Overcast
10:15 AM 32.0 °F 21.6 °F 26.6 °F 80% 30.11 in 10.0 mi SW 15.0 mph - N/A   Overcast
10:35 AM 32.0 °F 22.5 °F 26.6 °F 80% 30.11 in 10.0 mi SW 12.7 mph - N/A   Overcast
10:55 AM 32.0 °F 22.1 °F 26.6 °F 80% 30.11 in 10.0 mi SW 13.8 mph - N/A   Overcast
11:15 AM 32.0 °F 22.5 °F 26.6 °F 80% 30.10 in 10.0 mi SW 12.7 mph - N/A   Overcast
11:35 AM 32.0 °F 22.5 °F 26.6 °F 80% 30.10 in 10.0 mi SW 12.7 mph - N/A   Overcast
12:15 PM 32.0 °F 22.1 °F 28.4 °F 87% 30.09 in 2.5 mi WSW 13.8 mph 19.6 mph N/A Snow Light Snow
12:35 PM 32.0 °F 22.5 °F 28.4 °F 87% 30.07 in 1.5 mi WSW 12.7 mph - N/A Snow Light Snow
12:55 PM 32.0 °F 20.8 °F 28.4 °F 87% 30.06 in 2.5 mi WSW 17.3 mph 24.2 mph N/A Snow Light Snow
1:15 PM 32.0 °F 20.1 °F 28.4 °F 87% 30.07 in 1.2 mi WSW 19.6 mph 26.5 mph N/A Snow Light Snow
1:35 PM 32.0 °F 21.6 °F 30.2 °F 93% 30.06 in 1.0 mi SW 15.0 mph - N/A Snow Light Snow
1:55 PM 32.0 °F 22.5 °F 30.2 °F 93% 30.06 in 0.8 mi SW 12.7 mph - N/A Snow Light Snow
2:15 PM 32.0 °F 22.5 °F 30.2 °F 93% 30.06 in 1.2 mi SW 12.7 mph - N/A Snow Light Snow
2:35 PM 32.0 °F 23.0 °F 30.2 °F 93% 30.06 in 2.0 mi SW 11.5 mph - N/A Snow Light Snow
2:55 PM 32.0 °F 22.5 °F 30.2 °F 93% 30.05 in 2.5 mi SW 12.7 mph - N/A Snow Light Snow
3:15 PM 32.0 °F 22.1 °F 30.2 °F 93% 30.04 in 2.0 mi SW 13.8 mph - N/A Snow Light Snow
3:35 PM 32.0 °F 23.6 °F 30.2 °F 93% 30.04 in 2.0 mi SW 10.4 mph - N/A Snow Light Snow
3:55 PM 32.0 °F 23.0 °F 30.2 °F 93% 30.05 in 1.8 mi SW 11.5 mph - N/A Snow Light Snow
4:15 PM 32.0 °F 23.0 °F 30.2 °F 93% 30.06 in 1.8 mi SW 11.5 mph - N/A Snow Light Snow
4:35 PM 32.0 °F 23.6 °F 30.2 °F 93% 30.06 in 1.2 mi SW 10.4 mph - N/A Snow Light Snow
4:55 PM 32.0 °F 23.6 °F 30.2 °F 93% 30.05 in 2.5 mi WSW 10.4 mph - N/A Snow Light Snow
5:15 PM 32.0 °F 24.2 °F 30.2 °F 93% 30.05 in 5.0 mi SW 9.2 mph - N/A Snow Light Snow
5:35 PM 32.0 °F 24.2 °F 30.2 °F 93% 30.04 in 5.0 mi SW 9.2 mph - N/A Snow Light Snow
5:55 PM 32.0 °F 24.2 °F 30.2 °F 93% 30.05 in 7.0 mi SW 9.2 mph - N/A Snow Light Snow
6:15 PM 32.0 °F 24.2 °F 30.2 °F 93% 30.05 in 7.0 mi SW 9.2 mph - N/A Snow Light Snow
6:35 PM 32.0 °F 23.6 °F 30.2 °F 93% 30.05 in 7.0 mi WSW 10.4 mph - N/A Snow Light Snow
7:15 PM 32.0 °F 24.2 °F 30.2 °F 93% 30.06 in 10.0 mi WSW 9.2 mph - N/A   Overcast
7:35 PM 32.0 °F 23.6 °F 30.2 °F 93% 30.06 in 10.0 mi WSW 10.4 mph - N/A Snow Light Snow
7:55 PM 32.0 °F 24.2 °F 30.2 °F 93% 30.06 in 7.0 mi WSW 9.2 mph - N/A Snow Light Snow
8:15 PM 32.0 °F 24.8 °F 30.2 °F 93% 30.06 in 5.0 mi WSW 8.1 mph - N/A Snow Light Snow
8:35 PM 32.0 °F 24.2 °F 30.2 °F 93% 30.06 in 5.0 mi West 9.2 mph - N/A Snow Light Snow
8:55 PM 32.0 °F 25.6 °F 30.2 °F 93% 30.05 in 5.0 mi WNW 6.9 mph - N/A Snow Light Snow
9:15 PM 32.0 °F 25.6 °F 30.2 °F 93% 30.06 in 7.0 mi West 6.9 mph - N/A Snow Light Snow
9:35 PM 30.2 °F 23.4 °F 28.4 °F 93% 30.06 in 7.0 mi WNW 6.9 mph - N/A   Overcast
9:55 PM 30.2 °F 24.3 °F 28.4 °F 93% 30.06 in 10.0 mi West 5.8 mph - N/A   Overcast
10:15 PM 30.2 °F 25.4 °F 28.4 °F 93% 30.06 in 10.0 mi WNW 4.6 mph - N/A   Overcast
10:35 PM 30.2 °F 24.3 °F 28.4 °F 93% 30.06 in 7.0 mi WNW 5.8 mph - N/A   Overcast
10:55 PM 30.2 °F 24.3 °F 28.4 °F 93% 30.08 in 7.0 mi West 5.8 mph - N/A   Overcast
11:15 PM 30.2 °F 26.7 °F 28.4 °F 93% 30.07 in 5.0 mi WNW 3.5 mph - N/A   Overcast
11:35 PM 30.2 °F 23.4 °F 28.4 °F 93% 30.08 in 5.0 mi WNW 6.9 mph - N/A   Overcast
11:55 PM 30.2 °F 25.4 °F 26.6 °F 86% 30.07 in 7.0 mi WNW 4.6 mph - N/A   Overcast